Temperature
11 11 11 11 11 10 10 10 10 10 11 12 12 12 12 13 13 13 13 13 13 14 14 14 14 15 15 15 15 15 15 15 16 16 16 16 16 16
11 11 11 11 10 10 10 10 10 10 10 11 11 12 12 12 12 12 13 13 13 13 13 14 14 14 15 15 15 15 15 15 15 15 16 16 16 16
11 11 11 11 10 10 10 10 10 10 10 10 11 11 11 12 12 12 12 12 12 13 13 13 13 14 14 14 15 15 15 15 15 15 15 15 15 16
11 11 11 10 10 10 10 10 10 10 10 10 10 11 11 11 11 12 12 12 12 12 13 13 13 13 14 14 14 14 15 15 15 15 15 15 15 15
11 11 11 10 10 10 10 10 10 10 10 10 10 10 10 11 11 11 11 11 12 12 12 13 13 13 13 13 14 14 14 14 14 15 15 15 15 15
11 10 10 10 10 10 10 10 10 10 9 9 9 10 10 10 10 10 11 11 11 12 12 12 12 13 13 13 13 14 14 14 14 14 14 15 15 15
11 10 10 10 10 10 10 10 9 9 9 9 9 9 10 10 10 10 10 10 11 11 11 12 12 12 12 13 13 13 13 13 14 14 14 14 14 14
11 10 10 10 10 10 10 9 9 9 9 9 9 9 9 10 10 9 9 10 10 11 11 11 12 12 12 12 13 13 13 13 13 14 14 14 14 14
11 11 10 10 10 10 10 9 9 9 9 9 9 9 9 9 9 9 9 9 9 10 10 11 11 12 12 12 12 13 13 13 13 13 13 14 14 14
11 11 10 10 10 10 10 9 9 9 9 9 9 9 9 9 9 9 9 9 9 10 9 10 11 11 12 12 12 12 13 13 13 13 13 14 14 14
11 11 11 10 10 10 9 9 9 9 9 9 9 9 9 9 8 8 8 8 8 9 10 9 10 11 11 12 12 12 12 13 13 13 13 13 14 14
12 11 11 10 10 10 9 9 9 9 9 9 9 9 8 8 8 8 8 8 8 8 9 9 10 10 10 11 12 12 12 12 13 13 13 13 13 13
11 11 11 10 10 10 9 9 9 9 9 8 9 9 8 8 8 8 8 8 8 8 9 9 9 9 9 10 11 11 11 12 12 12 12 13 13 13
11 11 11 10 10 10 9 9 9 8 8 8 8 9 9 9 9 8 8 8 8 8 8 8 8 8 9 9 10 10 11 11 11 12 12 12 12 12
11 11 11 10 10 10 9 9 9 8 8 8 8 9 9 9 8 8 8 8 8 8 8 8 8 8 8 9 9 10 10 11 11 11 12 12 12 12
11 11 10 10 10 9 9 9 9 8 8 8 8 8 8 8 8 8 8 8 8 8 8 8 8 8 9 9 9 9 10 10 11 11 11 11 12 12
11 11 10 10 10 10 9 9 9 9 8 8 8 8 8 8 8 8 8 8 7 8 8 8 8 9 9 9 9 9 10 10 11 11 11 11 12 12
10 10 10 10 10 10 9 9 9 9 8 8 8 8 8 8 8 8 8 7 7 8 8 8 8 8 8 9 9 9 10 10 10 10 11 11 11 11
10 10 10 10 10 10 9 9 9 9 8 8 8 8 8 8 8 8 8 7 7 8 8 8 8 8 8 8 9 10 10 10 10 10 10 10 11 11
10 10 10 10 10 9 9 9 9 9 8 8 8 8 8 8 8 8 8 8 8 8 8 8 8 8 8 9 9 9 10 10 10 10 10 10 10 11
10 10 10 10 9 9 9 9 9 8 8 8 8 8 8 7 7 7 7 8 8 8 8 8 9 9 9 9 8 9 9 10 10 10 10 10 10 10
10 10 10 10 9 9 9 9 8 8 8 8 8 8 8 7 7 7 7 7 8 8 8 8 8 8 8 8 9 9 9 9 9 9 9 10 10 10
10 9 9 9 9 9 9 8 8 8 8 8 8 7 7 7 7 7 7 7 8 8 8 8 8 8 8 8 9 9 9 9 9 9 9 9 10 10
Wind_Speed
5 5 4 4 3 3 3 3 3 3 4 4 4 4 7 9 10 8 9 10 11 11 12 13 15 17 19 21 23 26 29 31 32 33 33 33 33 32
4 5 5 4 4 4 3 3 4 4 4 4 4 5 5 8 10 10 11 13 14 14 15 15 16 18 19 20 22 24 26 29 31 32 33 33 33 33
6 6 7 6 4 4 4 4 4 4 5 5 4 4 5 6 8 10 11 11 13 16 17 18 18 18 20 21 22 24 25 27 29 31 31 32 32 33
7 6 7 6 6 5 5 5 5 5 5 7 4 4 5 6 7 7 7 10 12 16 18 19 19 19 20 21 22 23 24 26 28 29 30 31 32 32
8 8 8 7 7 6 6 6 5 6 5 5 6 4 4 4 5 6 6 5 9 12 15 17 18 19 19 20 21 22 23 25 26 27 29 30 31 31
8 8 8 8 8 8 7 7 7 6 5 5 5 5 4 5 3 4 5 4 5 7 9 11 13 15 17 18 19 20 21 22 24 25 26 28 29 30
7 8 8 10 11 9 7 7 7 6 5 5 5 4 5 4 4 3 4 5 5 3 4 4 4 5 8 13 16 18 20 21 22 23 25 26 27 28
8 8 8 10 11 13 14 13 11 9 8 6 6 7 8 6 5 4 4 3 4 3 3 5 4 6 5 8 14 17 19 21 21 22 24 26 27 28
9 8 8 9 10 8 10 11 12 14 14 10 9 10 8 8 6 6 6 6 6 5 3 6 5 6 6 10 15 17 18 19 20 21 22 24 25 27
10 10 10 10 10 10 9 9 9 10 11 10 10 11 11 9 8 8 7 6 6 5 4 5 5 6 6 6 13 16 17 18 19 19 19 21 23 25
10 10 11 11 14 15 10 10 10 10 12 14 14 14 15 15 10 5 5 5 6 5 4 4 5 5 5 6 8 13 15 16 16 17 17 18 20 21
8 9 13 14 15 14 10 9 10 10 8 8 9 10 10 11 13 10 8 7 6 5 5 5 5 3 4 3 3 4 7 11 14 15 16 16 16 13
8 8 9 14 15 15 12 9 12 10 7 7 7 7 7 7 7 8 8 9 9 8 6 4 4 3 4 4 3 3 4 4 5 8 12 15 16 14
10 9 10 14 15 14 10 12 15 11 6 6 7 8 8 8 8 8 9 10 11 12 10 8 6 6 5 5 4 3 3 4 5 5 5 9 12 15
11 13 13 14 13 11 14 15 12 7 6 7 9 10 9 9 7 6 7 8 9 11 13 9 9 8 7 7 6 4 4 4 5 6 6 6 6 6
10 11 13 13 11 11 11 10 8 8 8 9 8 9 7 6 7 7 6 6 6 7 8 11 11 11 9 9 7 7 6 4 4 5 6 6 6 6
6 4 4 5 6 7 7 8 7 7 9 9 9 9 8 8 8 7 6 6 6 7 7 5 7 9 10 8 7 8 7 6 6 5 5 6 7 7
7 5 7 8 9 9 8 8 7 9 9 9 9 9 9 9 9 7 6 7 8 8 8 6 5 3 3 6 10 9 8 7 6 6 6 6 7 6
7 8 9 9 9 9 9 9 9 9 8 8 9 9 9 9 8 8 8 8 8 8 8 7 6 7 8 8 6 10 9 7 6 6 7 6 6 5
8 10 10 10 9 9 9 9 9 8 7 8 9 9 9 8 9 9 9 9 9 8 8 7 8 9 10 8 5 5 10 8 7 7 6 4 2 2
11 11 11 10 10 10 9 9 9 9 8 7 7 8 8 8 9 9 9 12 10 8 9 9 10 12 7 4 4 4 4 7 7 5 6 5 4 4
10 11 10 10 9 9 9 8 8 8 8 8 8 8 8 8 9 10 9 9 9 9 10 8 6 6 6 8 8 7 5 3 3 5 5 2 4 7
10 9 9 8 8 7 7 7 9 8 8 8 8 7 7 8 8 8 8 9 8 9 8 7 5 6 7 8 8 6 7 6 4 3 2 8 4 1
Wind_Direction
251 251 245 251 242 230 209 191 205 280 292 286 298 309 316 312 307 295 284 278 272 268 265 260 256 253 248 244 240 235 230 226 223 221 220 219 219 219
245 249 252 251 254 249 236 218 195 208 257 269 269 283 303 309 306 295 282 279 273 269 266 264 261 257 253 249 245 240 234 228 224 221 219 218 218 219
252 245 250 250 249 252 248 240 229 206 250 273 262 281 293 296 302 297 290 279 273 270 267 265 262 259 253 249 247 243 238 231 225 222 220 219 219 218
245 244 251 252 248 247 244 244 244 230 232 269 280 283 283 288 290 293 292 286 274 273 268 266 262 258 255 249 246 245 240 234 227 223 221 220 220 220
235 235 242 243 250 248 243 244 246 253 231 245 269 268 275 285 300 298 294 290 288 280 273 267 263 259 254 250 247 245 240 235 230 226 223 221 221 220
234 232 234 233 239 244 247 243 242 247 246 247 261 270 272 281 289 295 306 305 299 294 285 279 271 264 256 251 248 243 240 236 233 230 227 225 223 222
239 238 239 240 240 239 242 237 234 235 239 242 255 267 271 279 275 275 288 299 297 282 303 299 289 273 263 254 247 243 238 235 233 231 229 227 226 224
239 244 249 253 255 256 256 251 232 228 231 235 243 246 256 253 253 258 267 295 299 293 319 298 290 279 265 254 248 243 239 235 234 233 232 229 227 226
235 240 252 254 251 251 262 268 259 246 232 225 233 242 246 242 241 255 250 244 249 261 288 284 282 276 267 262 255 248 241 236 233 233 234 233 231 229
234 234 239 251 255 247 251 258 257 255 245 236 231 239 240 238 230 237 246 254 259 258 233 263 276 271 271 259 257 251 244 236 234 234 235 235 233 230
240 237 234 243 252 251 248 251 259 263 258 244 235 237 240 241 234 232 243 248 268 268 223 229 262 269 268 261 251 246 242 237 236 238 238 237 235 231
248 243 239 241 249 252 237 235 247 256 258 264 253 252 249 250 244 227 227 236 246 261 235 215 245 248 275 265 249 240 243 242 239 239 239 238 232 228
246 248 243 240 243 243 232 224 238 244 248 248 253 256 254 247 244 232 223 224 230 240 233 204 233 232 242 281 283 247 233 236 230 237 238 236 228 219
237 241 240 240 239 239 236 235 243 250 245 247 252 254 252 251 247 240 233 230 231 238 237 210 223 232 239 255 265 267 245 234 229 234 231 228 229 227
235 234 235 239 240 244 245 244 245 239 232 242 250 253 249 246 244 246 249 243 242 244 244 221 220 228 224 236 246 246 254 246 226 231 230 224 222 214
234 238 239 245 244 243 249 252 240 230 227 238 245 252 249 242 243 239 245 247 251 261 248 229 221 221 231 235 235 242 231 233 230 226 230 230 223 217
201 213 228 236 242 245 248 247 241 233 234 238 242 249 249 247 249 238 234 234 237 250 259 248 227 221 220 216 229 237 234 235 231 221 223 235 230 219
175 213 229 232 239 244 247 249 242 237 236 235 236 240 244 245 249 242 229 231 240 244 245 240 223 219 236 244 224 230 229 230 227 215 214 230 236 217
192 225 232 235 238 240 241 243 247 243 236 233 236 238 239 241 242 243 238 235 239 242 241 228 211 207 227 244 243 217 217 219 211 214 217 221 229 216
218 228 234 236 237 238 240 242 246 247 238 236 237 238 236 238 241 242 238 236 238 239 240 229 217 214 220 227 226 226 210 206 207 214 210 202 203 162
224 229 233 235 237 237 239 239 241 243 240 234 235 236 236 235 241 242 239 236 233 234 236 237 232 220 215 191 205 225 217 207 203 203 191 185 188 186
230 231 233 233 234 236 236 236 238 240 239 238 239 240 239 236 240 242 238 235 232 230 233 238 225 198 191 204 216 212 201 176 120 101 89 118 188 191
232 233 234 233 232 232 232 234 237 242 240 239 239 241 241 240 239 239 239 236 232 230 229 229 215 200 205 207 206 198 189 182 169 145 59 8 344 234
Height
1531 1531 1530 1530 1530 1529 1529 1528 1527 1524 1522 1522 1522 1522 1522 1522 1521 1521 1520 1521 1521 1521 1521 1522 1523 1524 1526 1528 1530 1533 1536 1540 1544 1548 1552 1556 1560 1564
1528 1527 1527 1526 1526 1525 1525 1525 1524 1522 1519 1518 1518 1518 1518 1517 1517 1516 1516 1516 1516 1516 1516 1516 1517 1518 1519 1520 1522 1525 1527 1531 1535 1539 1543 1547 1552 1556
1524 1524 1523 1522 1521 1521 1521 1520 1520 1519 1516 1514 1514 1514 1513 1513 1512 1512 1512 1511 1511 1511 1511 1511 1511 1511 1512 1513 1514 1516 1519 1522 1525 1530 1534 1539 1543 1547
1520 1519 1519 1518 1517 1517 1516 1515 1515 1514 1512 1509 1509 1509 1508 1508 1507 1507 1506 1506 1505 1505 1505 1505 1505 1505 1505 1506 1507 1508 1510 1512 1516 1520 1525 1530 1534 1538
1516 1515 1514 1513 1512 1512 1511 1510 1509 1509 1508 1506 1504 1504 1503 1503 1502 1501 1501 1500 1500 1499 1499 1499 1499 1498 1498 1499 1499 1500 1502 1504 1507 1511 1515 1520 1524 1529
1511 1510 1509 1508 1507 1506 1505 1504 1504 1503 1502 1501 1499 1499 1498 1498 1497 1496 1495 1494 1494 1494 1493 1493 1492 1492 1492 1492 1492 1493 1494 1496 1498 1501 1505 1510 1514 1519
1506 1505 1504 1503 1501 1500 1499 1498 1498 1497 1496 1496 1494 1494 1493 1492 1492 1491 1490 1489 1488 1488 1487 1487 1486 1486 1486 1486 1486 1487 1488 1489 1491 1493 1496 1500 1505 1509
1500 1499 1498 1497 1495 1494 1493 1492 1492 1491 1490 1490 1489 1488 1487 1487 1487 1486 1485 1483 1482 1484 1482 1481 1481 1480 1480 1480 1480 1480 1481 1482 1484 1486 1488 1491 1495 1500
1494 1493 1492 1490 1489 1488 1487 1486 1486 1485 1485 1484 1483 1482 1481 1482 1481 1480 1479 1478 1477 1477 1476 1474 1475 1474 1474 1474 1474 1474 1475 1476 1477 1479 1481 1483 1487 1491
1487 1486 1485 1484 1483 1482 1481 1480 1479 1479 1479 1478 1477 1476 1475 1475 1475 1474 1473 1471 1470 1471 1471 1468 1468 1467 1468 1468 1468 1468 1468 1469 1470 1472 1474 1476 1478 1482
1481 1480 1479 1477 1477 1476 1475 1473 1472 1472 1472 1471 1470 1469 1468 1468 1468 1468 1466 1465 1463 1463 1465 1463 1461 1461 1461 1460 1461 1461 1462 1463 1464 1465 1467 1468 1470 1473
1474 1473 1472 1471 1470 1469 1468 1467 1465 1465 1465 1464 1463 1462 1461 1461 1461 1461 1460 1459 1457 1456 1457 1458 1456 1456 1455 1454 1455 1455 1455 1456 1458 1459 1460 1461 1463 1464
1467 1466 1466 1465 1464 1463 1462 1460 1459 1458 1457 1456 1455 1454 1453 1453 1453 1453 1453 1452 1451 1449 1451 1452 1451 1451 1451 1449 1449 1450 1450 1450 1451 1453 1454 1455 1456 1457
1459 1459 1458 1458 1457 1455 1454 1453 1452 1451 1449 1448 1447 1445 1445 1445 1445 1445 1444 1444 1443 1443 1444 1445 1445 1445 1445 1444 1444 1444 1445 1445 1446 1447 1448 1449 1450 1450
1451 1451 1451 1450 1449 1448 1447 1446 1445 1443 1442 1440 1439 1438 1437 1437 1437 1436 1436 1436 1435 1436 1437 1438 1438 1438 1439 1438 1438 1439 1439 1440 1441 1441 1442 1443 1443 1444
1443 1443 1442 1442 1440 1439 1438 1437 1436 1435 1434 1432 1431 1430 1430 1429 1429 1429 1428 1428 1428 1428 1429 1431 1431 1432 1432 1432 1433 1433 1434 1434 1435 1436 1437 1437 1438 1439
1436 1435 1434 1433 1432 1431 1430 1428 1427 1426 1425 1424 1424 1423 1422 1422 1421 1421 1421 1421 1420 1420 1421 1423 1424 1425 1425 1426 1426 1427 1428 1429 1430 1431 1431 1431 1432 1433
1427 1426 1425 1424 1423 1422 1421 1420 1419 1418 1417 1417 1416 1415 1414 1414 1413 1414 1414 1414 1413 1413 1414 1415 1417 1418 1419 1418 1420 1420 1421 1423 1424 1425 1426 1426 1426 1428
1417 1416 1416 1416 1415 1414 1413 1412 1411 1411 1410 1409 1408 1408 1407 1406 1406 1405 1405 1406 1405 1406 1407 1408 1410 1411 1411 1411 1412 1414 1415 1417 1418 1419 1420 1421 1422 1424
1407 1407 1407 1407 1406 1406 1405 1404 1403 1403 1402 1401 1401 1400 1399 1399 1398 1397 1397 1397 1398 1398 1399 1400 1402 1403 1404 1406 1407 1408 1410 1411 1413 1414 1415 1417 1418 1420
1398 1398 1398 1398 1398 1397 1397 1396 1396 1395 1394 1394 1393 1392 1392 1391 1390 1389 1389 1389 1390 1391 1391 1392 1394 1397 1399 1401 1401 1402 1404 1406 1407 1409 1411 1412 1414 1415
1389 1389 1389 1389 1389 1389 1389 1388 1388 1387 1386 1386 1385 1384 1384 1383 1382 1382 1382 1382 1382 1383 1384 1386 1388 1390 1392 1393 1394 1396 1399 1401 1402 1404 1406 1408 1409 1411
1381 1381 1381 1381 1381 1381 1381 1381 1380 1379 1378 1378 1377 1377 1376 1375 1375 1375 1375 1375 1375 1376 1377 1379 1381 1383 1384 1386 1388 1391 1393 1396 1397 1399 1401 1403 1405 1408